Regional Weather Roundup
Issued by NWS Albany, NY

Home | Current Version | Previous Version | Text Only | Print | Product List | Glossary On
Versions: 1 2 3 4 5 6 7 8 9 10 11 12 13 14 15 16 17 18 19 20 21 22 23 24 25 26 27 28 29 30 31 32 33 34 35 36 37 38 39 40 41 42 43 44 45 46 47 48 49 50
000
ASUS41 KALY 291910
RWRALY

NEW YORK STATE HOURLY WEATHER ROUNDUP
NATIONAL WEATHER SERVICE ALBANY NY
300 PM EDT FRI MAY 29 2015

NOTE: "FAIR" INDICATES FEW OR NO CLOUDS BELOW 12,000 FEET WITH NO
SIGNIFICANT WEATHER AND/OR NO OBSTRUCTIONS TO VISIBILITY.

NYZ032-033-038>043-046>054-057>066-NYZ062>081-292000-
EAST


CITY           SKY/WX    TMP DP  RH WIND       PRES   REMARKS
ALBANY         PTSUNNY   82  52  35 CALM      30.24F
GLENS FALLS    MOSUNNY   79  50  36 S8        30.24F
POUGHKEEPSIE   SUNNY     82  56  40 W8        30.24F
NEWBURGH       SUNNY     79  55  44 VRB6      30.27F
MONTGOMERY     SUNNY     80  57  45 CALM      30.25F
WHITE PLAINS   SUNNY     80  53  39 CALM      30.26F
ISLIP          MOSUNNY   77  57  50 SE10      30.25F
NEW YORK CITY  MOSUNNY   80  54  40 S12       30.26R
CENTRAL PARK   SUNNY     81  55  40 VRB3      30.29R
$$

NYZ005>009-017-018-044>046-055-056-292000-
CENTRAL


CITY           SKY/WX    TMP DP  RH WIND       PRES   REMARKS
FULTON         PTSUNNY   80  54  40 VRB6      30.20F
SYRACUSE       PTSUNNY   82  50  32 VRB5      30.20F
ROME           PTSUNNY   79  49  34 S6        30.23F
ELMIRA         PTSUNNY   83  54  36 SW9       30.21F
BINGHAMTON     PTSUNNY   77  52  41 W6        30.26F
MONTICELLO     MOSUNNY   79  54  41 S9        30.29F
$$

NYZ026>034-041>043-292000-
NORTH


CITY           SKY/WX    TMP DP  RH WIND       PRES   REMARKS
WATERTOWN      CLOUDY    77  54  44 W12       30.21F
FORT DRUM      NOT AVBL
MASSENA        PTSUNNY   78  56  46 VRB3      30.22S
SARANAC LAKE   MOSUNNY   76  48  37 W8        30.24F
PLATTSBURGH    SUNNY     75  53  46 SE8       30.23F
$$

NYZ001>004-010>016-019>021-292000-
WEST


CITY           SKY/WX    TMP DP  RH WIND       PRES   REMARKS
NIAGARA FALLS  CLOUDY    82  56  40 SW7       30.15F
BUFFALO        PTSUNNY   83  55  38 CALM      30.15F
DUNKIRK        PTSUNNY   81  60  48 N5        30.15F
JAMESTOWN      PTSUNNY   79  59  50 S9        30.21F
WELLSVILLE     PTSUNNY   79  57  46 S9        30.26S
ROCHESTER      CLOUDY    83  55  38 S7        30.18F
PENN YAN       PTSUNNY   82  54  37 SW10      30.21F
$$

             KEY
       WCI = WIND CHILL INDEX
       VSB = VISIBILITY
       HX  = HEAT INDEX
$$


USA.gov is the U.S. government's official web portal to all federal, state and local government web resources and services.